www.pogodaiklimat.ru
Время
(UTC), дата
07 29.11
08 29.11
09 29.11
10 29.11
11 29.11
12 29.11
13 29.11
14 29.11
15 29.11
16 29.11
17 29.11
18 29.11
19 29.11
20 29.11
21 29.11
22 29.11
23 29.11
00 30.11
01 30.11
02 30.11
03 30.11
04 30.11
05 30.11
06 30.11
07 30.11
08 30.11
09 30.11
10 30.11
11 30.11
12 30.11
13 30.11
14 30.11
15 30.11
16 30.11
17 30.11
18 30.11
19 30.11
20 30.11
21 30.11
22 30.11
23 30.11
00 1.12
01 1.12
02 1.12
03 1.12
04 1.12
05 1.12
06 1.12
07 1.12
08 1.12
09 1.12
10 1.12
11 1.12
12 1.12
13 1.12
14 1.12
15 1.12
16 1.12
17 1.12
18 1.12
19 1.12
20 1.12
21 1.12
22 1.12
23 1.12
00 2.12
01 2.12
02 2.12
03 2.12
04 2.12
05 2.12
06 2.12
07 2.12
08 2.12
09 2.12
10 2.12
11 2.12
12 2.12
13 2.12
14 2.12
15 2.12
16 2.12
17 2.12
18 2.12
19 2.12
20 2.12
21 2.12
22 2.12
23 2.12
00 3.12
01 3.12
02 3.12
03 3.12
04 3.12
05 3.12
06 3.12
07 3.12
08 3.12
09 3.12
10 3.12
11 3.12
12 3.12
13 3.12
14 3.12
15 3.12
16 3.12
17 3.12
18 3.12
19 3.12
20 3.12
21 3.12
22 3.12
23 3.12
00 4.12
01 4.12
02 4.12
03 4.12
04 4.12
05 4.12
06 4.12
07 4.12
08 4.12
09 4.12
10 4.12
11 4.12
12 4.12
13 4.12
14 4.12
15 4.12
16 4.12
17 4.12
18 4.12
19 4.12
20 4.12
21 4.12
22 4.12
23 4.12
00 5.12
01 5.12
02 5.12
03 5.12
04 5.12
05 5.12
06 5.12
07 5.12
08 5.12
09 5.12
10 5.12
11 5.12
12 5.12
13 5.12
14 5.12
15 5.12
16 5.12
17 5.12
18 5.12
19 5.12
20 5.12
21 5.12
22 5.12
23 5.12
00 6.12
01 6.12
02 6.12
03 6.12
05 6.12
06 6.12
07 6.12
Ветер
(напр.,м/с)
Видим. Явления Облачность Т
(С)
Тd
(С)
f
(%)
Тe
(С)
Тes
(С)
Комфортность P
(гПа)
Po
(гПа)
Тmin
(С)
Tmax
(С)
R
(мм)
R24
(мм)
S
(см)
В 3 7000 м дымка н/о +6.3 +6.2 99 +3 +3 тепло 1012.0 1005.8
В 4 17 км н/о +6.8 +6.4 97 +3 +3 тепло 1012.9 1006.7
В 3 22 км н/о +6.8 +6.2 96 +4 +4 по сезону 1014.0 1007.8
В 4 15 км в посл. час морось н/о +6.8 +6.3 97 +3 +3 тепло 1015.1 1008.8
В 5 30 км н/о +6.8 +6.0 95 +3 +3 тепло 1016.0 1009.8
В 5 27 км в посл. час морось н/о +6.9 +6.0 94 +3 +3 по сезону 1016.2 1010.0 0.2
В 5 26 км н/о +7.4 +6.1 91 +4 +4 тепло 1016.8 1010.5
В 4 23 км н/о +8.3 +6.1 86 +5 +5 тепло 1016.9 1010.7
В 5 22 км н/о +7.5 +5.8 89 +4 +4 по сезону 1017.2 1011.0
В 4 21 км н/о +7.5 +5.9 90 +4 +4 тепло 1017.7 1011.4
В 5 20 км н/о +7.6 +5.9 89 +4 +4 тепло 1018.1 1011.9
В 6 21 км н/о +7.7 +5.9 88 +4 +4 по сезону 1018.3 1012.0 +8.7 0.2
В 5 21 км н/о +7.8 +6.0 88 +4 +4 тепло 1018.5 1012.3
В 4 20 км н/о +8.0 +5.9 87 +5 +5 тепло 1018.5 1012.3
В 4 22 км в посл. час морось н/о +8.3 +6.2 87 +5 +5 тепло 1018.4 1012.1
В 4 7000 м слаб. морось н/о +8.3 +7.3 93 +5 +5 тепло 1018.1 1011.9
В 4 19 км в посл. час морось н/о +8.9 +7.7 92 +6 +6 тепло 1017.8 1011.6
В 6 17 км слаб. морось н/о +9.1 +8.1 93 +5 +5 по сезону 1017.4 1011.2 0.4
В 5 21 км в посл. час морось н/о +9.4 +8.0 91 +6 +6 тепло 1016.7 1010.5
В 7 24 км н/о +9.6 +7.5 87 +6 +6 тепло 1016.5 1010.4
В 6 25 км н/о +9.6 +7.5 87 +6 +6 по сезону 1016.5 1010.3
В 7 25 км н/о +9.6 +7.6 87 +6 +6 тепло 1015.8 1009.6
В 7 9000 м слаб. дождь н/о +9.3 +7.6 89 +5 +5 тепло 1015.3 1009.1
В 6 20 км в посл. час морось н/о +9.5 +8.1 91 +6 +6 по сезону 1014.4 1008.2 +7.7 0.4 0.6
В 6 19 км н/о +9.8 +8.2 90 +6 +6 тепло 1014.0 1007.8
В 7 24 км в посл. час дождь н/о +10.1 +8.1 87 +6 +6 тепло 1013.8 1007.7
В 7 25 км н/о +10.1 +7.9 86 +6 +6 по сезону 1014.4 1008.2
В 6
{13}
23 км н/о +10.2 +8.0 86 +7 +7 тепло 1014.5 1008.3
В 6
{14}
23 км н/о +10.3 +8.1 86 +7 +7 тепло 1014.4 1008.2
В 8-13
{14}
24 км н/о +10.4 +7.9 84 +7 +7 по сезону 1013.4 1007.3 0.0
В 8-13
{14}
26 км н/о +10.3 +7.5 83 +6 +6 по сезону 1012.9 1006.7
В 7
{14}
23 км н/о +10.3 +7.6 83 +7 +7 тепло 1012.7 1006.6
В 7-12
{14}
19 км слаб. морось н/о +10.3 +7.5 83 +7 +7 по сезону 1012.3 1006.2
В 8-15
{16}
18 км слаб. дождь н/о +10.1 +7.2 82 +6 +6 тепло 1012.7 1006.6
В 8-14
{15}
21 км в посл. час дождь н/о +9.6 +6.3 80 +6 +6 тепло 1013.5 1007.4
В 7-15
{15}
23 км н/о +9.4 +5.8 78 +5 +5 по сезону 1014.3 1008.1 +10.5 0.0
В 8-13
{15}
26 км в посл. час дождь н/о +9.1 +4.8 74 +5 +5 по сезону 1014.9 1008.7
В 7
{14}
27 км н/о +9.0 +4.6 74 +5 +5 тепло 1015.8 1009.6
СВ 8-13
{13}
21 км н/о +7.9 +4.7 80 +3 +3 по сезону 1016.1 1009.8
СВ 8
{14}
23 км н/о +7.8 +4.3 79 +3 +3 по сезону 1016.4 1010.2
В 9
{14}
24 км н/о +7.2 +3.9 80 +2 +2 тепло 1016.5 1010.3
В 8
{13}
25 км н/о +6.4 +3.0 79 +1 +1 прохладно 1017.1 1010.8 0.0
В 7
{13}
25 км н/о +5.8 +2.6 80 +1 +1 по сезону 1017.0 1010.7
СВ 7 25 км н/о +5.5 +2.2 79 0 0 по сезону 1017.2 1010.9
СВ 4 24 км н/о +5.0 +1.8 80 +1 +1 прохладно 1017.9 1011.6
СВ 5 25 км н/о +4.8 +1.0 76 0 0 по сезону 1018.3 1012.0
С 3 29 км н/о +3.8 -0.1 76 0 0 тепло 1019.0 1012.6
СВ 4 29 км н/о +4.0 +0.1 76 -0 -0 прохладно 1019.8 1013.4 +3.7 0.0
С 5 26 км н/о +3.5 +0.6 81 -1 -1 по сезону 1020.6 1014.3
СВ 6 25 км н/о +3.8 +1.4 84 -2 -2 по сезону 1021.3 1014.9
С 5 25 км н/о +4.0 +1.5 84 -1 -1 холодно 1022.5 1016.1
С 7 29 км н/о +5.3 +2.1 80 0 0 по сезону 1023.6 1017.3
СВ 6 30 км н/о +6.5 +2.6 76 +2 +2 тепло 1023.9 1017.6
СВ 7 30 км н/о +7.3 +2.3 71 +3 +3 прохладно 1024.0 1017.7
СВ 8 35 км н/о +7.7 +1.7 66 +3 +3 по сезону 1024.3 1018.0
СВ 7 35 км н/о +7.2 +0.4 62 +3 +3 тепло 1024.3 1018.0
С 6
{13}
35 км н/о +6.7 +0.9 66 +3 +3 прохладно 1025.0 1018.7
С 6 35 км н/о +5.9 +1.6 74 +1 +1 по сезону 1026.0 1019.7
С 6 35 км н/о +5.1 +1.0 75 0 0 по сезону 1026.9 1020.6
С 6 35 км н/о +4.6 +0.9 77 -0 -0 прохладно 1028.1 1021.7 +8.0
С 5 30 км н/о +4.6 +1.0 77 -0 -0 по сезону 1028.5 1022.2
С 4 30 км н/о +4.6 +0.8 76 +1 +1 по сезону 1029.5 1023.1
С 4 30 км н/о +4.2 +0.4 76 0 0 прохладно 1029.9 1023.5
С 4 28 км н/о +3.4 +0.2 80 -1 -1 по сезону 1030.5 1024.1
СВ 4 35 км н/о +3.3 +0.4 81 -1 -1 по сезону 1030.6 1024.2
С 5 30 км н/о +2.9 +0.2 82 -2 -2 холодно 1030.9 1024.5
СВ 2 30 км н/о +2.0 -0.4 84 -1 -1 по сезону 1031.5 1025.1
С 2 30 км н/о +1.1 -0.8 87 -2 -2 по сезону 1031.7 1025.2
С 2 28 км н/о +0.5 -1.0 90 -3 -3 холодно 1031.8 1025.3
С 2 28 км н/о +0.4 -1.1 90 -3 -3 прохладно 1032.0 1025.5
СЗ 2 29 км н/о -0.3 -1.4 92 -4 -4 по сезону 1032.5 1026.0
С 2 30 км н/о -0.6 -1.9 91 -5 -5 очень
холодно
1032.6 1026.1 -0.6
В 2 25 км н/о -0.5 -1.5 93 -4 -4 прохладно 1032.7 1026.2
СВ 2 28 км н/о -0.6 -1.8 92 -4 -4 по сезону 1033.4 1026.8
З 1 23 км н/о -0.3 -1.1 94 -1 -1 холодно 1033.2 1026.7
В 1 25 км н/о +2.0 +0.3 88 +2 +2 по сезону 1033.6 1027.1
С 1 26 км н/о +3.9 +0.8 80 +4 +4 тепло 1033.9 1027.5
СВ 2 28 км н/о +5.6 +0.5 70 +4 +4 по сезону 1033.4 1027.1
штиль 0 26 км н/о +6.6 +0.8 66 +6 +6 по сезону 1032.9 1026.5
З 2 27 км н/о +7.2 +2.4 72 +5 +5 тепло 1032.7 1026.4
ЮЗ 2 30 км н/о +6.9 +2.0 71 +5 +5 по сезону 1032.6 1026.2
Ю 2 29 км н/о +5.7 +1.0 72 +4 +4 по сезону 1032.9 1026.5
ЮВ 1 27 км н/о +5.3 +1.1 74 +5 +5 тепло 1032.8 1026.5
В 2 24 км н/о +5.5 +0.2 69 +4 +4 по сезону 1032.9 1026.5 +7.8
ЮВ 2 30 км н/о +5.0 -0.4 68 +3 +3 по сезону 1032.8 1026.4
СВ 2 16 км н/о +4.5 +1.8 83 +2 +2 тепло 1033.1 1026.7
В 2 14 км н/о +3.9 +1.5 84 +2 +2 по сезону 1033.0 1026.6
В 2 22 км н/о +3.6 +1.0 83 +1 +1 по сезону 1032.7 1026.3
В 2 15 км н/о +2.6 +0.7 87 0 0 по сезону 1032.6 1026.2
В 2 19 км н/о +2.2 +0.6 89 -1 -1 холодно 1032.5 1026.1
В 3 17 км н/о +1.1 0.0 92 -3 -3 прохладно 1032.0 1025.5
В 2 21 км н/о +1.3 +0.1 92 -2 -2 по сезону 1031.8 1025.3
С 2 28 км н/о +1.3 -0.1 90 -2 -2 холодно 1031.4 1024.9
В 2 27 км н/о +1.5 -0.1 89 -2 -2 по сезону 1030.6 1024.2
СВ 2 35 км н/о +1.5 -0.1 89 -2 -2 по сезону 1030.4 1023.9
СВ 2 30 км н/о +2.2 +0.5 89 -1 -1 прохладно 1030.0 1023.5 +0.9
В 2 35 км н/о +2.1 +0.1 87 -1 -1 по сезону 1030.0 1023.5
В 3 35 км н/о +2.6 +0.3 85 -1 -1 по сезону 1029.7 1023.3
В 3 35 км н/о +4.2 +1.4 82 +1 +1 прохладно 1029.6 1023.2
В 3 27 км н/о +5.3 +2.4 82 +2 +2 по сезону 1029.4 1023.0
В 2 28 км н/о +7.7 +3.8 76 +6 +6 тепло 1028.9 1022.6
Ю 1 35 км н/о +9.8 +5.1 73 +9 +9 тепло 1027.6 1021.3
Ю 4 45 км н/о +10.1 +5.0 71 +8 +8 тепло 1026.7 1020.5
Ю 4 45 км н/о +9.9 +4.5 69 +7 +7 тепло 1025.9 1019.7
Ю 4 40 км н/о +9.1 +3.9 70 +7 +7 по сезону 1025.3 1019.1
Ю 4 30 км н/о +8.5 +4.3 75 +6 +6 тепло 1025.1 1018.8
Ю 3 30 км дымка н/о +6.7 +3.5 80 +4 +4 тепло 1024.8 1018.5
Ю 3 35 км н/о +5.9 +3.8 86 +3 +3 по сезону 1024.5 1018.2 +10.7
Ю 4 35 км н/о +6.3 +4.2 86 +3 +3 по сезону 1024.4 1018.1
ЮВ 3 17 км н/о +4.8 +3.3 90 +2 +2 тепло 1023.8 1017.4
В 3 14 км н/о +4.1 +3.3 95 +1 +1 прохладно 1023.4 1017.1
В 2 12 км н/о +3.7 +2.9 95 +1 +1 по сезону 1023.1 1016.8
В 3 10 км н/о +3.3 +2.6 95 -1 -1 по сезону 1022.6 1016.2
В 3 13 км н/о +3.3 +2.7 96 -1 -1 прохладно 1022.2 1015.8
В 2 12 км н/о +2.9 +2.2 95 -0 -0 по сезону 1021.7 1015.3
В 3 16 км н/о +3.7 +3.1 96 0 0 тепло 1021.2 1014.8
В 3 14 км н/о +3.5 +2.8 95 -1 -1 прохладно 1020.5 1014.2
В 3 12 км н/о +3.5 +2.8 95 -0 -0 по сезону 1019.8 1013.4
В 3 17 км н/о +3.7 +2.9 95 -0 -0 тепло 1019.5 1013.2
В 3 16 км н/о +3.6 +2.7 94 -0 -0 прохладно 1019.2 1012.9 +2.8
В 3 17 км н/о +3.3 +2.5 94 -0 -0 по сезону 1019.2 1012.9
В 3 17 км н/о +3.7 +3.1 96 0 0 тепло 1019.5 1013.2
В 2 17 км н/о +4.2 +3.2 93 +1 +1 прохладно 1019.9 1013.6
В 2 18 км н/о +5.1 +3.7 91 +2 +2 по сезону 1020.1 1013.8
В 1 21 км н/о +6.2 +4.3 88 +5 +5 тепло 1020.1 1013.8
С 1 21 км н/о +7.9 +4.5 79 +8 +8 по сезону 1019.9 1013.7
В 3 28 км н/о +8.1 +3.1 71 +6 +6 тепло 1019.6 1013.4
СВ 2 27 км н/о +8.2 +2.6 68 +7 +7 тепло 1019.2 1012.9
ЮВ 2 16 км н/о +8.0 +2.6 69 +7 +7 по сезону 1019.4 1013.1
В 1 27 км н/о +6.5 +2.5 76 +6 +6 тепло 1019.7 1013.5
СВ 1 19 км н/о +4.5 +1.9 83 +4 +4 тепло 1020.5 1014.2
СВ 2 21 км н/о +4.3 +2.8 90 +2 +2 прохладно 1021.1 1014.8 +9.6
СВ 2 12 км н/о +3.6 +2.0 89 +1 +1 по сезону 1021.3 1015.0
СВ 2 13 км н/о +2.4 +1.4 93 -0 -0 по сезону 1021.8 1015.4
СВ 2 6000 м н/о +1.9 +0.9 93 -2 -2 холодно 1022.1 1015.7
В 2 11 км н/о +1.5 +0.9 96 -1 -1 по сезону 1022.6 1016.2
В 2 9000 м дымка н/о +1.5 +0.9 96 -2 -2 по сезону 1022.7 1016.3
В 2 11 км н/о +1.8 +1.4 97 -2 -2 холодно 1023.1 1016.7
СВ 1 13 км н/о +2.4 +1.8 96 +1 +1 по сезону 1022.5 1016.1
В 2 10 км н/о +2.9 +2.1 94 0 0 тепло 1022.4 1016.0
В 2 11 км н/о +2.9 +2.1 94 -0 -0 прохладно 1022.3 1015.9
Ю 2 15 км н/о +4.0 +3.4 96 +2 +2 по сезону 1022.3 1015.9
В 3 13 км н/о +3.1 +2.4 95 -1 -1 по сезону 1022.5 1016.1
В 3 13 км н/о +3.0 +2.3 95 -1 -1 прохладно 1022.5 1016.2 +1.2 0.2 0.2
В 2 12 км н/о +3.7 +3.1 96 +1 +1 по сезону 1022.6 1016.2
СВ 2 10 км н/о +3.0 +2.5 97 0 0 тепло 1023.0 1016.6
СВ 2 6000 м в посл. час туман н/о +2.5 +2.2 98 -1 -1 холодно 1023.3 1016.9
СВ 2 2400 м дымка н/о +3.2 +3.1 99 +1 +1 по сезону 1023.2 1016.8
В 1 6000 м в посл. час туман н/о +4.8 +4.8 100 +4 +4 тепло 1022.8 1016.5
СЗ 1 9000 м н/о +6.8 +6.6 99 +7 +7 по сезону 1022.2 1016.0
ЮЗ 6 26 км н/о +9.5 +7.3 86 +6 +6 тепло 1021.2 1015.0
ЮЗ 6 26 км н/о +9.7 +6.8 82 +6 +6 тепло 1020.4 1014.2
ЮЗ 7 24 км н/о +9.8 +6.6 80 +6 +6 по сезону 1019.4 1013.2
ЮЗ 8 23 км н/о +9.9 +7.1 83 +6 +6 тепло 1019.1 1012.9
ЮЗ 8
{14}
21 км н/о +10.1 +7.6 84 +6 +6 тепло 1018.6 1012.4
ЮЗ 11-16
{16}
20 км н/о +10.4 +7.8 84 +6 +6 по сезону 1018.3 1012.1 +10.4
ЮЗ 11
{16}
3400 м морось н/о +9.6 +9.0 96 +5 +5 тепло 1018.3 1012.1
ЮЗ 9-15
{15}
11 км в посл. час морось н/о +9.9 +9.5 97 +5 +5 тепло 1017.6 1011.4
ЮЗ 9
{15}
12 км н/о +10.4 +9.9 97 +6 +6 по сезону 1017.0 1010.8
ЮЗ 9-15
{15}
6000 м дымка н/о +10.7 +10.2 97 +6 +6 тепло 1016.5 1010.4
ЮЗ 9-14
{15}
10 км в посл. час морось н/о +10.8 +10.5 98 +7 +7 тепло 1015.4 1009.3
ЮЗ 10
{14}
12 км в посл. час дождь н/о +11.0 +10.8 99 +7 +7 тепло 1014.4 1008.2 0.4
ЮЗ 9
{14}
11 км дымка н/о +11.2 +10.9 98 +7 +7 тепло 1013.7 1007.6
ЮЗ 11
{16}
11 км в посл. час морось н/о +11.3 +11.0 98 +7 +7 тепло 1012.8 1006.7
ЮЗ 11
{16}
6000 м слаб. дождь н/о +11.4 +11.1 98 +7 +7 тепло 1012.1 1006.0
ЮЗ 12
{16}
9000 м слаб. дождь н/о +11.4 +11.3 99 +7 +7 тепло 1011.0 1004.9
ЮЗ 13-19
{19}
3600 м слаб. дождь н/о +11.4 +11.3 99 +7 +7 тепло 1010.2 1004.1 +9.6 2 1.8
ЮЗ 13
{19}
9000 м в посл. час морось н/о +11.5 +11.4 99 +7 +7 тепло 1009.6 1003.5
Местоположение метеостанции Плимут (Великобритания): широта 50.35 долгота -4.12 высота над уровнем моря 50 м.
В архиве по умолчанию представлена погода в Плимуте за последнюю неделю. Архивные данные за месяц целиком и за предыдущие месяцы, начиная с января 2011 года, Вы можете получить, выбрав интересующий диапазон дат из раскрывающегося списка и нажав кнопку "Найти!".
*Определитесь, кто Вы:
Внимание! Время в таблицах - всемирное. Для получения местного времени необходимо прибавить поправку, которая равна 0 ч.
Смотрите также архив погоды в соседних городах и на ближайших метеорологических станциях:
Партнеры нашего сайта:      
Пояснения к столбцам:
  • Ветер - указаны скорость ветра в м/с - средняя за 10 мин, порывы в срок и между сроками (в фигурных скобках) и направление, откуда дует ветер: С - северный,
  • СВ - северо-восточный, В - восточный, ЮВ - юго-восточный, Ю - южный, ЮЗ - юго-западный, З - западный, СЗ - северо-западный.
  • Видимость - горизонтальная дальность видимости в метрах или километрах. При видимости от 1 до 10 км при отсутствии осадков обычно наблюдается дымка, при ухудшении видимости до 1 км и менее - туман. В сухую погоду видимость может ухудшаться дымом, пылью или мглою.
  • Явления - указаны атмосферные явления, наблюдавшиеся в срок или в последний час перед сроком; фигурными скобками обозначены явления, наблюдавшиеся между сроками (за 1-3 часа до срока); квадратными скобками обозначены град или гололедные отложения с указанием их диаметра в мм.
  • Облачность - указаны через наклонную черту общая и нижняя облачность в баллах и высота нижней границы облаков в метрах; квадратными скобками обозначены формы облаков: Ci - перистые, Cs - перисто-слоистые, Cc - перисто-кучевые, Ac - высококучевые, As - высокослоистые, Sc - слоисто-кучевые, Ns - слоисто-дождевые, Cu - кучевые, Cb - кучево-дождевые. Подробнее классификацию облаков см. в Атласе облаков (PDF).
  • T - Температура воздуха - температура, измеренная на высоте 2 м над землей.
  • Td - Температура точки росы - температура, при понижении до которой содержащийся в воздухе водяной пар достигнет насыщения.
  • f - Относительная влажность воздуха - влажноcть воздуха, измеренная на высоте 2 м над землей.
  • Te - Эффективная температура - температура, которую ощущает одетый по сезону человек в тени. Характеристика душности погоды. При расчете учитывается влияние влажности воздуха и скорости ветра на теплоощущения человека.
  • Tes - Эффективная температура на солнце - температура, которую ощущает человек, с поправкой на солнечный нагрев. Характеристика знойности погоды. Зависит от высоты солнца над горизонтом, облачности и скорости ветра. Ночью, в пасмурную погоду, а также при ветре 12 м/с и более поправка равна нулю.
  • P - Атмосферное давление - приведенное к уровню моря атмосферное давление.
  • Po - Атмосферное давление - измеренное на уровне метеостанции атмосферное давление.
  • Tmin - Минимальная температура - минимум температуры воздуха на высоте 2 м над землей.
  • Tmax - Максимальная температура - максимум температуры воздуха на высоте 2 м над землей.
  • R - Количество осадков - Количество выпавших осадков за период времени, мм. При наведении курсора мыши на число - период времени, за который выпало указанное количество осадков.
  • R24 - Количество осадков - Количество выпавших осадков за 24 часа, мм.
  • S - Снежный покров - Высота снежного покрова, см. При наведении курсора мыши на число - состояние снежного покрова и степень покрытия местности в баллах.